This demonstration page uses our WeatherBlox Daily Observations layout. Learn more.

Left ArrowRight Arrow

Hourly Observations for September 23, 2021

Temp ( °F °C ) Dew Point ( °F °C ) Humidity (%) Winds ( mph kmh ) Pressure ( in mb ) Visibility ( mi km ) Precip ( " mm )
12:15 am 00:15 Cloudy N/A N/A N/A WNW 12 19 N/A 10 16 N/A
12:35 am 00:35 Cloudy N/A N/A N/A WNW 14 22 N/A 10 16 N/A
12:55 am 00:55 Cloudy N/A N/A N/A W 6 9 N/A 10 16 N/A
1:15 am 01:15 Cloudy N/A N/A N/A W 9 15 N/A 10 16 N/A
1:35 am 01:35 Cloudy N/A N/A N/A W 10 17 N/A 10 16 N/A
1:55 am 01:55 Cloudy N/A N/A N/A W 12 19 N/A 10 16 N/A
2:15 am 02:15 Cloudy N/A N/A N/A W 10 17 N/A 10 16 N/A
2:35 am 02:35 Cloudy N/A N/A N/A W 14 22 N/A 10 16 N/A
2:55 am 02:55 Cloudy N/A N/A N/A W 12 19 N/A 10 16 N/A
3:15 am 03:15 Cloudy N/A N/A N/A W 12 19 N/A 10 16 N/A
3:35 am 03:35 Cloudy N/A N/A N/A W 10 17 N/A 10 16 N/A
3:55 am 03:55 Cloudy N/A N/A N/A W 8 13 N/A 10 16 N/A
4:15 am 04:15 Mostly Cloudy N/A N/A N/A W 10 17 N/A 10 16 N/A
4:35 am 04:35 Cloudy N/A N/A N/A W 9 15 N/A 10 16 N/A
4:55 am 04:55 Cloudy N/A N/A N/A W 8 13 N/A 10 16 N/A
5:15 am 05:15 Cloudy N/A N/A N/A W 9 15 N/A 10 16 N/A
5:35 am 05:35 Cloudy N/A N/A N/A W 9 15 N/A 10 16 N/A
5:55 am 05:55 Cloudy N/A N/A N/A W 7 11 N/A 10 16 N/A
6:15 am 06:15 Cloudy N/A N/A N/A WSW 8 13 N/A 10 16 N/A
6:35 am 06:35 Cloudy N/A N/A N/A WSW 8 13 N/A 10 16 N/A
6:55 am 06:55 Cloudy N/A N/A N/A W 10 17 N/A 10 16 N/A
7:15 am 07:15 Cloudy N/A N/A N/A W 13 20 N/A 10 16 N/A
7:35 am 07:35 Cloudy 50 10 48 9 94 94 W 12 19 29.94 1014 10 16 N/A
7:55 am 07:55 Partly Cloudy 50 10 50 10 100 100 W 9 15 29.94 1014 10 16 N/A
8:15 am 08:15 Mostly Cloudy 50 10 50 10 100 100 W 10 17 29.95 1014 10 16 N/A
8:35 am 08:35 Cloudy 52 11 50 10 94 94 W 10 17 29.95 1014 10 16 N/A
8:55 am 08:55 Mostly Cloudy 52 11 50 10 94 94 W 10 17 29.95 1014 10 16 N/A
9:15 am 09:15 Partly Cloudy 54 12 50 10 88 88 W 13 20 29.94 1014 10 16 N/A
9:35 am 09:35 Partly Cloudy 54 12 50 10 88 88 W 14 22 29.94 1014 10 16 N/A
9:55 am 09:55 Partly Cloudy 55 13 50 10 82 82 W 16 26 29.94 1014 10 16 N/A
10:15 am 10:15 Mostly Cloudy 55 13 50 10 82 82 WNW 15 24 29.95 1014 10 16 N/A
10:35 am 10:35 Mostly Cloudy 55 13 50 10 82 82 WNW 13 20 29.95 1014 10 16 N/A
10:55 am 10:55 Partly Cloudy 59 15 52 11 77 77 WNW 13 20 29.95 1014 10 16 N/A
11:15 am 11:15 Mostly Cloudy 57 14 50 10 77 77 WNW 10 17 29.97 1015 10 16 N/A
11:35 am 11:35 Cloudy 59 15 50 10 72 72 WNW 10 17 29.96 1015 10 16 N/A
11:55 am 11:55 Cloudy 57 14 50 10 77 77 NW 13 20 29.98 1015 10 16 N/A
12:15 pm 12:15 Cloudy 57 14 50 10 77 77 NW 13 20 29.98 1015 10 16 N/A
12:35 pm 12:35 Cloudy 55 13 50 10 82 82 N 13 20 29.99 1016 10 16 N/A
12:55 pm 12:55 Cloudy 55 13 50 10 82 82 NNW 13 20 29.99 1016 10 16 N/A
1:15 pm 13:15 Cloudy 57 14 52 11 82 82 NW 10 17 29.99 1015 10 16 N/A
1:35 pm 13:35 Cloudy 59 15 50 10 72 72 NW 9 15 29.98 1015 10 16 N/A
1:55 pm 13:55 Cloudy 59 15 52 11 77 77 NNW 9 15 29.98 1015 10 16 N/A
2:15 pm 14:15 Cloudy 57 14 50 10 77 77 NW 5 7 29.99 1015 10 16 N/A
2:35 pm 14:35 Cloudy 59 15 50 10 72 72 WNW 8 13 29.97 1015 10 16 N/A
2:55 pm 14:55 Cloudy 61 16 52 11 72 72 NW 6 9 29.96 1015 10 16 N/A
3:15 pm 15:15 Partly Cloudy 63 17 52 11 68 68 WNW 13 20 29.95 1014 10 16 N/A
3:35 pm 15:35 Partly Cloudy 64 18 48 9 56 56 W 16 26 29.94 1014 10 16 N/A
3:55 pm 15:55 Mostly Cloudy 61 16 48 9 63 63 W 14 22 29.94 1014 10 16 N/A
4:15 pm 16:15 Partly Cloudy 64 18 48 9 56 56 WSW 13 20 29.93 1014 10 16 N/A
4:35 pm 16:35 Mostly Cloudy 66 19 46 8 49 49 W 16 26 29.93 1014 10 16 N/A
4:55 pm 16:55 Partly Cloudy 64 18 41 5 43 43 W 15 24 29.94 1014 10 16 N/A
5:15 pm 17:15 Sunny 64 18 39 4 40 40 W 17 28 29.94 1014 10 16 N/A
5:35 pm 17:35 Sunny 64 18 37 3 37 37 W 18 30 29.94 1014 10 16 N/A
5:55 pm 17:55 Sunny 64 18 37 3 37 37 W 14 22 29.94 1014 10 16 N/A
6:15 pm 18:15 Sunny 64 18 37 3 37 37 W 15 24 29.95 1014 10 16 N/A
6:35 pm 18:35 Sunny 63 17 37 3 39 39 W 12 19 29.96 1014 10 16 N/A
6:55 pm 18:55 Sunny 63 17 37 3 39 39 W 9 15 29.97 1015 10 16 N/A
7:15 pm 19:15 Sunny 59 15 37 3 45 45 W 6 9 29.97 1015 10 16 N/A
7:35 pm 19:35 Sunny 57 14 39 4 51 51 W 6 9 29.99 1015 10 16 N/A
7:55 pm 19:55 Clear 52 11 45 7 77 77 W 3 6 30.00 1016 10 16 N/A
8:15 pm 20:15 Clear 52 11 43 6 72 72 SW 3 6 30.00 1016 10 16 N/A
8:35 pm 20:35 Clear 50 10 43 6 76 76 SW 3 6 30.01 1016 10 16 N/A
8:55 pm 20:55 Clear 48 9 45 7 87 87 SW 3 6 30.01 1016 10 16 N/A
9:15 pm 21:15 Clear 50 10 43 6 76 76 NW 8 13 30.02 1017 10 16 N/A
9:35 pm 21:35 Clear 48 9 43 6 82 82 SW 7 11 30.02 1017 10 16 N/A
9:55 pm 21:55 Clear 48 9 43 6 82 82 SW 7 11 30.02 1017 10 16 N/A
10:15 pm 22:15 Clear 46 8 43 6 87 87 N N/A 30.03 1017 10 16 N/A
10:35 pm 22:35 Clear 45 7 45 7 100 100 N N/A 30.04 1017 10 16 N/A
10:55 pm 22:55 Clear 46 8 45 7 93 93 N N/A 30.04 1017 10 16 N/A
11:15 pm 23:15 Clear 45 7 45 7 100 100 N N/A 30.04 1017 10 16 N/A
11:35 pm 23:35 Clear 43 6 43 6 100 100 S 5 7 30.04 1017 10 16 N/A
11:55 pm 23:55 Clear 45 7 45 7 100 100 SSW 3 6 30.04 1017 10 16 N/A

Powered by AerisWeather